Location: Hiram
(41.3130°N, 81.1440°W)
Time: 01:20:19
(UTC-05:00)

Iridium 62 - Visible Passes

Search period start: 30 January 2015 00:00
Search period end: 09 February 2015 00:00
Orbit: 776 x 779 km, 86.4° (Epoch: 29 January)

Date Brightness Start Highest point End Pass type
(mag) Time Alt. Az. Time Alt. Az. Time Alt. Az.
30 Jan 8.2 06:04:19 10° SE 06:08:27 25° E 06:12:43 10° NNE visible
30 Jan 5.9 18:13:32 10° N 18:18:41 57° E 18:23:49 10° SSE visible
30 Jan 8.7 19:55:43 10° NW 19:58:58 16° W 20:02:00 10° WSW visible
31 Jan 8.9 05:32:46 10° ESE 05:35:11 14° E 05:37:53 10° NE visible
31 Jan 7.8 19:21:11 10° NNW 19:25:41 29° W 19:30:05 10° SW visible
01 Feb 6.3 06:36:43 10° S 06:41:52 66° E 06:47:03 10° N visible
01 Feb 6.7 18:47:13 10° NNW 18:52:18 53° W 18:57:21 10° SSW visible
02 Feb 7.5 06:03:47 10° SSE 06:08:27 36° E 06:13:13 10° NNE visible
02 Feb 5.8 18:13:35 10° N 18:18:50 83° E 18:24:03 10° S visible
02 Feb 9.1 19:57:22 10° WNW 19:58:54 11° WNW 20:00:06 10° W visible
03 Feb 8.5 05:31:31 10° SE 05:35:08 20° E 05:38:55 10° NE visible
03 Feb 8.5 19:21:48 10° NNW 19:25:40 21° W 19:29:21 10° SW visible
04 Feb 9.1 05:01:02 10° E 05:01:54 11° ENE 05:03:08 10° ENE visible
04 Feb 5.8 06:36:45 10° S 06:41:58 86° W 06:47:13 10° N visible
04 Feb 7.5 18:47:33 10° NNW 18:52:21 37° W 18:57:03 10° SSW visible
05 Feb 6.7 06:03:28 10° SSE 06:08:29 52° E 06:13:33 10° NNE visible
05 Feb 6.3 18:13:44 10° N 18:18:55 69° W 18:24:05 10° S visible
06 Feb 7.9 05:30:46 10° SE 05:35:06 28° E 05:39:34 10° NNE visible
06 Feb 8.9 19:22:47 10° NW 19:25:37 14° W 19:28:11 10° WSW visible
07 Feb 8.7 04:58:54 10° ESE 05:01:49 16° E 05:04:59 10° NE visible
07 Feb 5.9 06:36:57 10° SSW 06:42:05 59° W 06:47:16 10° N visible
07 Feb 8.2 18:48:02 10° NNW 18:52:21 26° W 18:56:31 10° SW visible
08 Feb 6.0 06:03:22 10° S 06:08:33 75° E 06:13:47 10° N visible
08 Feb 7.1 18:13:59 10° NNW 18:18:59 47° W 18:23:56 10° SSW visible
